FW8568 Weather Reports


Display with metric or nautical units.
time (UTC)temp
F
wind
direction
speed
MPH
gust
MPH
rain 1hr
in
rain 24hr
in
rain mn
in
humidity
%
barometer
mb
20260506134337 63 308 0.0 1.0 0.00 0.00 0.00 50 1015.2
20260506133834 60 293 1.0 2.0 0.00 0.00 0.00 52 1015.0
20260506133331 59 288 1.0 2.0 0.00 0.00 0.00 52 1015.0
20260506132828 59 296 2.0 2.0 0.00 0.00 0.00 52 1015.2
20260506132325 58 312 2.0 2.0 0.00 0.00 0.00 53 1014.9
20260506131823 58 298 1.0 2.0 0.00 0.00 0.00 54 1015.0
20260506131319 57 284 0.0 2.0 0.00 0.00 0.00 54 1015.0
20260506130816 57 300 1.0 2.0 0.00 0.00 0.00 56 1014.8
20260506130312 57 301 2.0 2.0 0.00 0.00 0.00 54 1014.4
20260506125811 57 281 1.0 2.0 0.00 0.00 0.00 55 1014.6
20260506125308 57 280 2.0 2.0 0.00 0.00 0.00 53 1014.4
20260506124807 57 297 2.0 2.0 0.00 0.00 0.00 54 1014.4
20260506124303 57 295 1.0 2.0 0.00 0.00 0.00 53 1014.7
20260506123801 57 304 2.0 2.0 0.00 0.00 0.00 53 1014.6
20260506123300 57 297 1.0 2.0 0.00 0.00 0.00 52 1014.4
20260506122756 57 298 2.0 2.0 0.00 0.00 0.00 52 1014.3
20260506122253 57 289 1.0 2.0 0.00 0.00 0.00 51 1014.0
20260506121751 58 262 2.0 3.0 0.00 0.00 0.00 51 1014.3
20260506121248 58 298 1.0 2.0 0.00 0.00 0.00 51 1014.1
20260506120745 57 276 2.0 2.0 0.00 0.00 0.00 51 1014.2
20260506120243 58 301 2.0 2.0 0.00 0.00 0.00 51 1014.1
20260506115740 58 289 2.0 2.0 0.00 0.00 0.00 51 1013.9
20260506115238 58 298 2.0 2.0 0.00 0.00 0.00 50 1014.1
20260506114736 58 291 0.0 3.0 0.00 0.00 0.00 51 1013.9
20260506114233 58 269 2.0 3.0 0.00 0.00 0.00 52 1013.9
20260506113732 59 312 0.0 2.0 0.00 0.00 0.00 50 1013.9
20260506113229 59 300 1.0 3.0 0.00 0.00 0.00 50 1014.0
20260506112725 59 305 2.0 2.0 0.00 0.00 0.00 50 1013.9
20260506112223 59 284 1.0 2.0 0.00 0.00 0.00 49 1014.0
20260506111720 59 281 1.0 2.0 0.00 0.00 0.00 48 1013.7
20260506111218 59 287 1.0 2.0 0.00 0.00 0.00 48 1013.8
20260506110714 59 278 1.0 2.0 0.00 0.00 0.00 49 1014.0
20260506110212 59 295 1.0 2.0 0.00 0.00 0.00 49 1013.9
20260506105709 59 286 1.0 2.0 0.00 0.00 0.00 49 1013.7
20260506105206 59 277 1.0 2.0 0.00 0.00 0.00 47 1013.9
20260506104704 59 281 1.0 2.0 0.00 0.00 0.00 47 1013.9
20260506104201 60 292 1.0 2.0 0.00 0.00 0.00 49 1013.7
20260506103658 60 271 2.0 3.0 0.00 0.00 0.00 49 1013.8
20260506103155 60 292 2.0 2.0 0.00 0.00 0.00 47 1013.7
20260506102653 60 291 1.0 2.0 0.00 0.00 0.00 48 1013.8
20260506102150 60 287 2.0 2.0 0.00 0.00 0.00 47 1013.6
20260506101647 60 269 0.0 2.0 0.00 0.00 0.00 47 1013.7
20260506101144 60 279 1.0 2.0 0.00 0.00 0.00 47 1013.6
20260506100642 60 287 1.0 2.0 0.00 0.00 0.00 47 1013.4
20260506100140 60 295 1.0 2.0 0.00 0.00 0.00 47 1013.4
20260506095638 60 287 1.0 2.0 0.00 0.00 0.00 47 1013.2
20260506095134 60 279 2.0 2.0 0.00 0.00 0.00 47 1013.2
20260506094632 61 283 2.0 2.0 0.00 0.00 0.00 46 1013.2
20260506094130 61 295 2.0 2.0 0.00 0.00 0.00 45 1013.1
20260506093628 61 279 2.0 2.0 0.00 0.00 0.00 45 1013.1
20260506093125 61 272 1.0 2.0 0.00 0.00 0.00 46 1013.3
20260506092623 61 284 0.0 2.0 0.00 0.00 0.00 46 1013.2
20260506092119 61 280 2.0 2.0 0.00 0.00 0.00 45 1013.5
20260506091618 61 265 1.0 2.0 0.00 0.00 0.00 45 1013.1
20260506091115 62 289 0.0 2.0 0.00 0.00 0.00 43 1012.9
20260506090613 62 287 1.0 2.0 0.00 0.00 0.00 43 1013.1
20260506090108 62 275 1.0 2.0 0.00 0.00 0.00 42 1012.9
20260506085606 62 291 1.0 2.0 0.00 0.00 0.00 42 1012.9
20260506085102 63 284 0.0 2.0 0.00 0.00 0.00 42 1012.9
20260506084559 63 280 1.0 1.0 0.00 0.00 0.00 43 1012.9
20260506084055 63 290 1.0 2.0 0.00 0.00 0.00 42 1013.1
20260506083552 64 268 0.0 1.0 0.00 0.00 0.00 41 1013.1
20260506083050 64 268 0.0 1.0 0.00 0.00 0.00 41 1013.0
20260506082546 65 299 0.0 1.0 0.00 0.00 0.00 40 1012.9
20260506082042 65 271 0.0 2.0 0.00 0.00 0.00 41 1012.9
20260506081540 65 312 0.0 2.0 0.00 0.00 0.00 39 1013.0
20260506081037 65 315 0.0 2.0 0.00 0.00 0.00 40 1013.0
20260506080535 65 104 0.0 2.0 0.00 0.00 0.00 38 1013.1
20260506073519 66 89 0.0 3.0 0.00 0.00 0.00 38 1012.9
20260506073016 65 311 1.0 1.0 0.00 0.00 0.00 38 1013.0
20260506072513 65 82 1.0 2.0 0.00 0.00 0.00 38 1012.7
20260506072010 65 81 0.0 1.0 0.00 0.00 0.00 38 1013.0
20260506071508 66 280 0.0 1.0 0.00 0.00 0.00 38 1013.0
20260506071005 66 307 1.0 1.0 0.00 0.00 0.00 38 1012.9
20260506070502 66 115 0.0 2.0 0.00 0.00 0.00 38 1012.9
20260506062439 65 284 0.0 1.0 0.00 0.00 0.00 39 1012.5
20260506061935 65 319 0.0 0.0 0.00 0.00 0.00 37 1012.5
20260506061432 65 309 0.0 1.0 0.00 0.00 0.00 37 1012.7
20260506060930 65 300 0.0 1.0 0.00 0.00 0.00 38 1012.6
20260506060428 65 297 0.0 1.0 0.00 0.00 0.00 37 1012.5
20260506051400 65 284 0.0 1.0 0.00 0.00 0.00 35 1012.5
20260506050857 65 284 0.0 1.0 0.00 0.00 0.00 37 1012.1
20260506050355 65 284 0.0 2.0 0.00 0.00 0.00 35 1012.2
20260506044845 66 333 0.0 1.0 0.00 0.00 0.00 35 1012.0
20260506044343 67 284 0.0 1.0 0.00 0.00 0.00 34 1012.0
20260506043840 67 284 0.0 1.0 0.00 0.00 0.00 34 1011.9
20260506043337 67 284 0.0 0.0 0.00 0.00 0.00 34 1011.8
20260506042835 68 284 0.0 1.0 0.00 0.00 0.00 33 1011.9
20260506042334 68 252 0.0 1.0 0.00 0.00 0.00 33 1011.8
20260506041832 68 244 0.0 1.0 0.00 0.00 0.00 32 1011.6
20260506041329 69 292 0.0 1.0 0.00 0.00 0.00 34 1011.8
20260506040826 69 78 0.0 0.0 0.00 0.00 0.00 32 1011.5
20260506040323 69 324 0.0 1.0 0.00 0.00 0.00 32 1011.5
20260506035820 69 250 0.0 1.0 0.00 0.00 0.00 32 1011.4
20260506035317 69 301 0.0 0.0 0.00 0.00 0.00 32 1011.2
20260506034814 69 232 0.0 0.0 0.00 0.00 0.00 31 1011.3
20260506034311 70 134 0.0 1.0 0.00 0.00 0.00 31 1011.4
20260506033808 70 258 0.0 0.0 0.00 0.00 0.00 32 1011.2
20260506033305 70 337 0.0 1.0 0.00 0.00 0.00 31 1011.3
20260506032802 70 309 0.0 2.0 0.00 0.00 0.00 31 1011.2
20260506032259 71 146 0.0 1.0 0.00 0.00 0.00 30 1011.3
20260506031755 71 104 0.0 3.0 0.00 0.00 0.00 30 1010.9
20260506031253 71 8 1.0 2.0 0.00 0.00 0.00 30 1010.8
20260506030751 71 132 0.0 2.0 0.00 0.00 0.00 30 1010.7
20260506030248 71 175 0.0 3.0 0.00 0.00 0.00 30 1010.8
20260506025745 71 2 0.0 3.0 0.00 0.00 0.00 30 1010.5
20260506025241 72 96 1.0 2.0 0.00 0.00 0.00 29 1010.7
20260506024738 72 89 3.0 5.0 0.00 0.00 0.00 29 1010.7
20260506024235 72 61 0.0 5.0 0.00 0.00 0.00 28 1010.4
20260506023731 72 109 2.0 4.0 0.00 0.00 0.00 28 1010.4
20260506023229 73 108 2.0 4.0 0.00 0.00 0.00 28 1010.4
20260506022725 73 94 3.0 3.0 0.00 0.00 0.00 28 1010.2
20260506022223 73 93 2.0 5.0 0.00 0.00 0.00 28 1010.1
20260506021721 73 71 2.0 3.0 0.00 0.00 0.00 28 1010.0
20260506021218 73 51 2.0 4.0 0.00 0.00 0.00 28 1009.9
20260506020714 74 117 2.0 5.0 0.00 0.00 0.00 28 1010.0
20260506020212 74 88 3.0 5.0 0.00 0.00 0.00 27 1009.8
20260506015709 75 57 5.0 5.0 0.00 0.00 0.00 26 1009.9
20260506015207 76 123 1.0 5.0 0.00 0.00 0.00 25 1009.8
20260506014704 76 205 0.0 4.0 0.00 0.00 0.00 26 1009.7
20260506014200 76 351 0.0 5.0 0.00 0.00 0.00 26 1009.8
20260506013658 75 73 1.0 5.0 0.00 0.00 0.00 26 1009.7
20260506013155 75 143 2.0 5.0 0.00 0.00 0.00 26 1009.8
20260506012651 75 111 0.0 7.0 0.00 0.00 0.00 26 1009.7
20260506012148 77 46 2.0 5.0 0.00 0.00 0.00 26 1009.7
20260506011645 77 51 2.0 6.0 0.00 0.00 0.00 26 1009.7
20260506011141 78 134 4.0 4.0 0.00 0.00 0.00 25 1009.5
20260506010640 79 80 3.0 4.0 0.00 0.00 0.00 25 1009.6
20260506010137 78 89 3.0 6.0 0.00 0.00 0.00 25 1009.5
20260506005634 77 117 2.0 6.0 0.00 0.00 0.00 26 1009.6
20260506005130 77 19 0.0 4.0 0.00 0.00 0.00 26 1009.5
20260506004627 78 80 0.0 4.0 0.00 0.00 0.00 26 1009.2
20260506004124 78 79 2.0 6.0 0.00 0.00 0.00 26 1009.5
20260506003620 80 102 5.0 9.0 0.00 0.00 0.00 25 1009.2
20260506003116 80 38 3.0 6.0 0.00 0.00 0.00 25 1009.2
20260506002612 80 121 1.0 5.0 0.00 0.00 0.00 24 1009.1
20260506002108 80 82 2.0 6.0 0.00 0.00 0.00 25 1009.0
20260506001605 81 44 2.0 4.0 0.00 0.00 0.00 24 1009.1
20260506001102 81 110 5.0 5.0 0.00 0.00 0.00 24 1009.1
20260506000559 81 104 3.0 5.0 0.00 0.00 0.00 23 1009.1
20260506000057 82 117 3.0 6.0 0.00 0.00 0.00 23 1008.9
20260505235555 82 76 0.0 4.0 0.00 0.00 0.00 24 1008.9
20260505235051 82 94 2.0 5.0 0.00 0.00 0.00 24 1008.9
20260505234548 82 31 2.0 5.0 0.00 0.00 0.00 23 1008.7
20260505234045 82 41 2.0 6.0 0.00 0.00 0.00 24 1009.0
20260505233543 81 74 4.0 7.0 0.00 0.00 0.00 25 1008.9
20260505233040 81 37 1.0 4.0 0.00 0.00 0.00 25 1009.0
20260505232538 79 37 2.0 3.0 0.00 0.00 0.00 26 1008.9
20260505232035 78 112 3.0 5.0 0.00 0.00 0.00 27 1009.1
20260505231531 79 106 6.0 6.0 0.00 0.00 0.00 26 1008.9
20260505231030 79 88 3.0 6.0 0.00 0.00 0.00 26 1009.0
20260505230527 81 98 4.0 5.0 0.00 0.00 0.00 25 1009.2
20260505230024 82 113 3.0 4.0 0.00 0.00 0.00 25 1009.1
20260505225521 81 107 3.0 7.0 0.00 0.00 0.00 25 1009.0
20260505225017 81 73 4.0 4.0 0.00 0.00 0.00 25 1009.2
20260505224514 82 84 4.0 5.0 0.00 0.00 0.00 25 1009.2
20260505224011 81 103 2.0 7.0 0.00 0.00 0.00 25 1009.3
20260505223508 81 91 5.0 5.0 0.00 0.00 0.00 24 1009.2
20260505223004 80 108 5.0 6.0 0.00 0.00 0.00 25 1009.5
20260505222501 79 116 3.0 5.0 0.00 0.00 0.00 27 1009.5
20260505221956 78 73 6.0 7.0 0.00 0.00 0.00 27 1009.8
20260505221454 77 95 3.0 5.0 0.00 0.00 0.00 28 1009.5
20260505220951 79 156 2.0 7.0 0.00 0.00 0.00 27 1009.7
20260505220448 79 78 1.0 4.0 0.00 0.00 0.00 28 1009.7
20260505215945 79 165 2.0 5.0 0.00 0.00 0.00 27 1009.8
20260505215443 78 126 2.0 5.0 0.00 0.00 0.00 28 1009.8
20260505214941 79 111 2.0 4.0 0.00 0.00 0.00 27 1009.7
20260505214438 77 29 2.0 5.0 0.00 0.00 0.00 28 1009.9
20260505213936 77 104 3.0 6.0 0.00 0.00 0.00 29 1009.9
20260505213433 77 75 5.0 7.0 0.00 0.00 0.00 28 1010.1
20260505212929 80 93 5.0 5.0 0.00 0.00 0.00 27 1009.9
20260505212426 79 99 1.0 4.0 0.00 0.00 0.00 27 1009.9
20260505211922 79 67 4.0 6.0 0.00 0.00 0.00 27 1010.3
20260505211420 80 45 3.0 6.0 0.00 0.00 0.00 28 1010.4
20260505210916 79 359 0.0 3.0 0.00 0.00 0.00 28 1010.1
20260505210414 79 113 0.0 6.0 0.00 0.00 0.00 28 1010.3
20260505205910 78 336 0.0 7.0 0.00 0.00 0.00 28 1010.3
20260505205409 76 170 2.0 5.0 0.00 0.00 0.00 29 1010.2
20260505204905 77 81 1.0 7.0 0.00 0.00 0.00 29 1010.5
20260505204403 77 147 4.0 4.0 0.00 0.00 0.00 30 1010.2
20260505203900 77 121 4.0 6.0 0.00 0.00 0.00 29 1010.3
20260505203356 77 109 5.0 6.0 0.00 0.00 0.00 29 1010.4
20260505202853 78 138 1.0 3.0 0.00 0.00 0.00 30 1010.4
20260505202349 77 86 3.0 3.0 0.00 0.00 0.00 29 1010.3
20260505201846 77 104 2.0 3.0 0.00 0.00 0.00 30 1010.5
20260505201343 77 99 2.0 5.0 0.00 0.00 0.00 30 1010.3
20260505200842 76 71 5.0 7.0 0.00 0.00 0.00 31 1010.6
20260505200338 77 133 3.0 6.0 0.00 0.00 0.00 31 1010.6
20260505195834 76 113 3.0 7.0 0.00 0.00 0.00 31 1010.6
20260505195331 77 194 1.0 4.0 0.00 0.00 0.00 30 1010.8
20260505194828 78 61 3.0 5.0 0.00 0.00 0.00 30 1010.8
20260505194325 77 133 2.0 4.0 0.00 0.00 0.00 31 1010.9
20260505193820 76 79 3.0 8.0 0.00 0.00 0.00 32 1010.8
20260505193319 77 94 2.0 5.0 0.00 0.00 0.00 31 1010.6
20260505192816 78 99 3.0 4.0 0.00 0.00 0.00 31 1010.7
20260505192315 78 208 1.0 4.0 0.00 0.00 0.00 32 1010.6
20260505191812 78 70 1.0 4.0 0.00 0.00 0.00 32 1010.9
20260505191310 78 125 5.0 6.0 0.00 0.00 0.00 31 1011.2
20260505190806 78 83 2.0 5.0 0.00 0.00 0.00 31 1011.0
20260505190302 77 16 2.0 4.0 0.00 0.00 0.00 33 1011.0
20260505185758 77 175 1.0 3.0 0.00 0.00 0.00 34 1010.9
20260505185254 77 46 2.0 4.0 0.00 0.00 0.00 34 1011.2
20260505184750 77 351 2.0 4.0 0.00 0.00 0.00 33 1011.2
20260505184248 77 344 3.0 4.0 0.00 0.00 0.00 34 1011.3
20260505183744 76 32 2.0 5.0 0.00 0.00 0.00 35 1011.3
20260505183242 76 34 0.0 3.0 0.00 0.00 0.00 35 1011.4
20260505182738 75 65 2.0 7.0 0.00 0.00 0.00 36 1011.4
20260505182235 75 109 1.0 2.0 0.00 0.00 0.00 37 1011.4
20260505181731 73 284 0.0 2.0 0.00 0.00 0.00 39 1011.7
20260505181229 73 135 1.0 4.0 0.00 0.00 0.00 39 1011.7
20260505180725 74 121 5.0 5.0 0.00 0.00 0.00 40 1011.6
20260505180222 74 350 0.0 4.0 0.00 0.00 0.00 42 1011.6
20260505175718 73 352 0.0 1.0 0.00 0.00 0.00 42 1011.5
20260505175215 73 41 0.0 4.0 0.00 0.00 0.00 41 1011.5
20260505174712 74 143 1.0 3.0 0.00 0.00 0.00 40 1011.5
20260505174209 76 132 4.0 4.0 0.00 0.00 0.00 39 1011.5
20260505173704 74 257 0.0 3.0 0.00 0.00 0.00 42 1011.4
20260505173201 75 152 1.0 2.0 0.00 0.00 0.00 40 1011.4
20260505172659 74 330 0.0 2.0 0.00 0.00 0.00 42 1011.5
20260505172155 73 80 2.0 3.0 0.00 0.00 0.00 41 1011.5
20260505171655 73 77 0.0 5.0 0.00 0.00 0.00 42 1011.3
20260505171152 73 57 1.0 2.0 0.00 0.00 0.00 42 1011.3
20260505170649 73 126 0.0 4.0 0.00 0.00 0.00 44 1011.5
20260505170146 72 99 2.0 5.0 0.00 0.00 0.00 44 1011.5
20260505165641 73 82 1.0 3.0 0.00 0.00 0.00 43 1011.8
20260505165137 73 118 2.0 5.0 0.00 0.00 0.00 43 1011.6
20260505164632 72 86 2.0 3.0 0.00 0.00 0.00 45 1011.6
20260505164130 71 107 2.0 3.0 0.00 0.00 0.00 46 1011.5
20260505163628 72 114 5.0 5.0 0.00 0.00 0.00 44 1011.8
20260505163126 71 293 1.0 5.0 0.00 0.00 0.00 46 1011.7
20260505162623 70 126 2.0 3.0 0.00 0.00 0.00 46 1011.7
20260505162121 69 57 0.0 3.0 0.00 0.00 0.00 47 1011.6
20260505161617 68 144 2.0 3.0 0.00 0.00 0.00 48 1011.7
20260505161115 68 29 1.0 3.0 0.00 0.00 0.00 49 1011.9
20260505160613 69 94 1.0 5.0 0.00 0.00 0.00 48 1011.5
20260505160110 69 89 1.0 3.0 0.00 0.00 0.00 50 1011.7
20260505153049 68 129 2.0 3.0 0.00 0.00 0.00 51 1011.8
20260505152546 68 145 1.0 4.0 0.00 0.00 0.00 52 1011.7
20260505152042 68 130 3.0 4.0 0.00 0.00 0.00 53 1011.9
20260505151537 69 115 3.0 5.0 0.00 0.00 0.00 52 1011.5
20260505151035 69 101 6.0 7.0 0.00 0.00 0.00 52 1011.5
20260505150531 70 351 0.0 5.0 0.00 0.00 0.00 52 1011.5
20260505140456 66 100 1.0 2.0 0.00 0.00 0.00 56 1011.6